Regional Weather Roundup
Issued by NWS Kansas City/Pleasant Hill, MO

Home | Current Version | Previous Version | Graphics & Text | Print | Product List | Glossary Off
Versions: 1 2 3 4 5 6 7 8 9 10 11 12 13 14 15 16 17 18 19 20 21 22 23 24 25 26 27 28 29 30 31 32 33 34 35 36 37 38 39 40 41 42 43 44 45 46 47 48 49 50

000
ASUS43 KEAX 200104
RWREAX

WEATHER ROUNDUP FOR EASTERN KANSAS AND NORTHWEST MISSOURI
NATIONAL WEATHER SERVICE KANSAS CITY/PLEASANT HILL MO
800 PM CDT SUN OCT 19 2014

KSZ040-057-103>105-MOZ028-029-037-043-200200-
...KANSAS CITY METROPOLITAN AREA...

CITY           SKY/WX    TMP DP  RH WIND       PRES   REMARKS
K.C. INTL      PTCLDY    54  47  77 S10       30.00F
K.C. DOWNTOWN  PTCLDY    63  48  58 S6        30.00F
LEES SUMMIT    MOCLDY    62  49  62 S6        30.02F
OLATHE - IXD   CLEAR     56  48  74 S6        30.02F
OLATHE - OJC   CLEAR     58  50  75 S5        30.01F
LAWRENCE       CLEAR     57  46  66 CALM      30.01S

$$

MOZ001>008-011>017-020>025-030>033-038>040-044>046-053-054-200200-
...NORTHERN AND CENTRAL MISSOURI...

CITY           SKY/WX    TMP DP  RH WIND       PRES   REMARKS
ST. JOSEPH     PTCLDY    57  48  72 S3        29.99S
MOSBY          PTCLDY    59  50  72 CALM      30.01S
WHITEMAN AFB   PTCLDY    53  48  83 SW5       30.03S
CLINTON        CLEAR     57  52  82 CALM      30.05S
SEDALIA        PTCLDY    58  48  69 SW7       30.04S
WARSAW         NOT AVBL
MARSHALL       MOCLDY    61  50  67 S5        30.03S
CHILLICOTHE      N/A     54  49  83 CALM      30.01S
MOBERLY        MOCLDY    57  43  58 S6        30.02F
KIRKSVILLE     CLOUDY    55  46  71 S3        30.00S

$$

MOZ041-047>049-056>058-063>065-088>090-097-200200-
...EASTERN AND SOUTHERN MISSOURI...

CITY           SKY/WX    TMP DP  RH WIND       PRES   REMARKS
ST. LOUIS INTL PTCLDY    56  47  71 S3        30.06S
SPIRIT OF STL  PTCLDY    51  47  86 CALM      30.04F
COLUMBIA       PTCLDY    57  43  59 S5        30.04S
JEFFERSON CITY PTCLDY    55  46  71 E5        30.04S
MEXICO         PTCLDY    57  50  77 S6        30.03F
ROLLA          PTCLDY    53  44  71 S9        30.05S
LEBANON        CLEAR     55  48  76 S5        30.08S
OSAGE BEACH    CLEAR     57  46  67 S6        30.05F
SPRINGFIELD    CLEAR     55  49  80 S7        30.07S
BRANSON        PTCLDY    52  48  87 SE5       30.10S
JOPLIN         PTCLDY    59  53  80 S6        30.07S
WEST PLAINS    PTCLDY    51  45  79 CALM      30.11S

$$

IAZ060-094-KSZ022-034>040-054-083-096-NEZ052-066-093-200200-
...KANSAS...SOUTHEAST NEBRASKA AND IOWA...

CITY           SKY/WX    TMP DP  RH WIND       PRES   REMARKS
TOPEKA         PTCLDY    64  49  57 S5        30.00S
MANHATTAN      PTCLDY    60  50  69 SW6       30.00R
CHANUTE        CLOUDY    62  54  74 SE5       30.05S
WICHITA        PTCLDY    66  54  65 SE9       30.01R
OMAHA          CLEAR     59  47  64 S7        29.94R
LINCOLN        CLEAR     59  48  67 SW5       29.97R
FALLS CITY     CLEAR     60  48  64 S6        29.98R
LAMONI         CLEAR     55  46  71 SW8       29.96F
DES MOINES     CLEAR     60  47  61 SW10      29.93F

$$



USA.gov is the U.S. government's official web portal to all federal, state and local government web resources and services.